TUI925 EDDS-EHRD

Flight info

Callsign TUI925
Flight time 1h 9m
Altitude 38000
Route TAGIK4B TAGIK Z3 ABUMO N850 GISEM Z505 ARPEG Z850 HMM L602 RKN
Aircraft B738/M-SDE2E3FGHIRWXY/LB1

Departure

Time 2026-05-07 18:49
Airport Stuttgart Airport (EDDS)

Arrival

Time 2026-05-07 19:58
Airport Rotterdam The Hague Airport (EHRD)
Time Latitude Longitude Altitude Speed Heading
2026-05-07 18:08 48.68985 9.20417 1278 ft 0 kts 163°
2026-05-07 18:36 48.68977 9.20421 1277 ft 5 kts 163°
2026-05-07 18:36 48.68928 9.20481 1274 ft 11 kts 98°
2026-05-07 18:36 48.68948 9.20619 1269 ft 15 kts 73°
2026-05-07 18:37 48.68984 9.20788 1263 ft 18 kts 73°
2026-05-07 18:37 48.69022 9.20996 1255 ft 22 kts 76°
2026-05-07 18:37 48.69069 9.21232 1250 ft 24 kts 75°
2026-05-07 18:37 48.69114 9.21477 1247 ft 23 kts 74°
2026-05-07 18:38 48.69160 9.21719 1244 ft 24 kts 74°
2026-05-07 18:38 48.69207 9.21973 1236 ft 26 kts 75°
2026-05-07 18:38 48.69254 9.22224 1231 ft 23 kts 76°
2026-05-07 18:38 48.69301 9.22460 1225 ft 21 kts 76°
2026-05-07 18:39 48.69345 9.22693 1218 ft 24 kts 75°
2026-05-07 18:39 48.69395 9.22954 1211 ft 27 kts 75°
2026-05-07 18:39 48.69440 9.23198 1204 ft 23 kts 73°
2026-05-07 18:39 48.69472 9.23410 1200 ft 16 kts 71°
2026-05-07 18:40 48.69511 9.23581 1198 ft 17 kts 71°
2026-05-07 18:40 48.69548 9.23766 1195 ft 19 kts 74°
2026-05-07 18:40 48.69582 9.23956 1191 ft 17 kts 75°
2026-05-07 18:40 48.69609 9.24125 1189 ft 15 kts 83°
2026-05-07 18:41 48.69560 9.24277 1183 ft 18 kts 137°
2026-05-07 18:41 48.69513 9.24314 1180 ft 0 kts 164°
2026-05-07 18:46 48.69511 9.24315 1180 ft 2 kts 165°
2026-05-07 18:47 48.69469 9.24324 1179 ft 7 kts 175°
2026-05-07 18:47 48.69413 9.24327 1178 ft 8 kts 195°
2026-05-07 18:47 48.69385 9.24278 1179 ft 3 kts 249°
2026-05-07 18:47 48.69379 9.24251 1180 ft 1 kts 254°
2026-05-07 18:48 48.69367 9.24178 1181 ft 28 kts 257°
2026-05-07 18:48 48.69247 9.23484 1195 ft 103 kts 253°
2026-05-07 18:48 48.68988 9.22128 1232 ft 162 kts 253°
2026-05-07 18:48 48.68636 9.20433 1776 ft 171 kts 253°
2026-05-07 18:49 48.68290 9.18687 2414 ft 181 kts 254°
2026-05-07 18:49 48.67975 9.16874 3104 ft 183 kts 258°
2026-05-07 18:49 48.67632 9.14934 3504 ft 198 kts 253°
2026-05-07 18:49 48.67168 9.12927 3908 ft 213 kts 248°
2026-05-07 18:50 48.66562 9.10760 4325 ft 227 kts 249°
2026-05-07 18:50 48.66314 9.08541 5224 ft 215 kts 278°
2026-05-07 18:50 48.66946 9.06350 5192 ft 251 kts 313°
2026-05-07 18:50 48.68559 9.05352 5608 ft 265 kts 357°
2026-05-07 18:51 48.70338 9.05506 6745 ft 253 kts
2026-05-07 18:51 48.72154 9.05424 7062 ft 271 kts 345°
2026-05-07 18:51 48.73924 9.04549 7754 ft 274 kts 336°
2026-05-07 18:51 48.75706 9.03453 8508 ft 277 kts 336°
2026-05-07 18:52 48.77515 9.02410 9259 ft 281 kts 338°
2026-05-07 18:52 48.79349 9.01428 9968 ft 284 kts 338°
2026-05-07 18:52 48.81222 9.00376 10551 ft 293 kts 337°
2026-05-07 18:52 48.83157 8.99236 10934 ft 308 kts 336°
2026-05-07 18:53 48.85196 8.98020 11458 ft 318 kts 336°
2026-05-07 18:53 48.87247 8.96798 12134 ft 323 kts 337°
2026-05-07 18:53 48.89365 8.95540 12884 ft 326 kts 337°
2026-05-07 18:53 48.91465 8.94294 13632 ft 330 kts 338°
2026-05-07 18:54 48.93593 8.93041 14384 ft 333 kts 338°
2026-05-07 18:54 48.95856 8.92088 14912 ft 339 kts 349°
2026-05-07 18:54 48.98210 8.91870 15053 ft 343 kts 359°
2026-05-07 18:54 49.00581 8.92100 15050 ft 342 kts
2026-05-07 18:55 49.02989 8.92494 15483 ft 352 kts
2026-05-07 18:55 49.05366 8.92903 16449 ft 348 kts
2026-05-07 18:55 49.07800 8.93295 17150 ft 352 kts
2026-05-07 18:55 49.10218 8.93502 17848 ft 354 kts 358°
2026-05-07 18:56 49.12669 8.93470 18528 ft 357 kts 356°
2026-05-07 18:56 49.15158 8.93353 19210 ft 360 kts 355°
2026-05-07 18:56 49.17664 8.93246 19896 ft 363 kts 356°
2026-05-07 18:56 49.20186 8.93166 20545 ft 366 kts 356°
2026-05-07 18:57 49.22742 8.93109 21176 ft 369 kts 356°
2026-05-07 18:57 49.25306 8.93068 21786 ft 372 kts 357°
2026-05-07 18:57 49.27900 8.93036 22410 ft 375 kts 357°
2026-05-07 18:57 49.30490 8.93009 23011 ft 377 kts 357°
2026-05-07 18:58 49.33115 8.92984 23566 ft 380 kts 357°
2026-05-07 18:58 49.35751 8.92961 24027 ft 383 kts 358°
2026-05-07 18:58 49.38444 8.92937 24051 ft 384 kts 358°
2026-05-07 18:58 49.41105 8.92915 24049 ft 381 kts 358°
2026-05-07 18:59 49.43748 8.92894 24047 ft 382 kts 357°
2026-05-07 18:59 49.46403 8.92873 24051 ft 383 kts 358°
2026-05-07 18:59 49.49033 8.92852 24045 ft 382 kts 358°
2026-05-07 18:59 49.51708 8.92830 24048 ft 382 kts 358°
2026-05-07 19:00 49.54372 8.92809 24054 ft 382 kts 358°
2026-05-07 19:00 49.57021 8.92783 24052 ft 382 kts 358°
2026-05-07 19:00 49.59669 8.92761 24058 ft 382 kts 358°
2026-05-07 19:00 49.62321 8.92742 24056 ft 382 kts 358°
2026-05-07 19:01 49.64937 8.92723 24054 ft 382 kts 358°
2026-05-07 19:01 49.67598 8.92703 24060 ft 382 kts 358°
2026-05-07 19:01 49.70252 8.92683 24060 ft 382 kts 358°
2026-05-07 19:01 49.72924 8.92662 24061 ft 381 kts 358°
2026-05-07 19:02 49.75549 8.92641 24061 ft 381 kts 358°
2026-05-07 19:02 49.78220 8.92619 24064 ft 380 kts 358°
2026-05-07 19:02 49.80830 8.92597 24068 ft 381 kts 358°
2026-05-07 19:02 49.83488 8.92575 24064 ft 381 kts 358°
2026-05-07 19:03 49.86132 8.92553 24069 ft 382 kts 358°
2026-05-07 19:03 49.88797 8.92531 24070 ft 382 kts 358°
2026-05-07 19:03 49.91433 8.92511 24071 ft 382 kts 358°
2026-05-07 19:03 49.94080 8.92490 24070 ft 381 kts 358°
2026-05-07 19:04 49.96747 8.92468 24066 ft 382 kts 358°
2026-05-07 19:04 49.99408 8.92447 24070 ft 382 kts 358°
2026-05-07 19:04 50.02049 8.92429 24073 ft 381 kts 358°
2026-05-07 19:04 50.04711 8.92408 24071 ft 381 kts 358°
2026-05-07 19:05 50.07321 8.92387 24071 ft 381 kts 358°
2026-05-07 19:05 50.09980 8.92364 24076 ft 380 kts 358°
2026-05-07 19:05 50.12602 8.92340 24075 ft 381 kts 358°
2026-05-07 19:05 50.15262 8.92174 24073 ft 381 kts 354°
2026-05-07 19:06 50.17900 8.91759 24072 ft 381 kts 352°
2026-05-07 19:06 50.23127 8.90637 24069 ft 382 kts 350°
2026-05-07 19:06 50.25761 8.90032 24069 ft 381 kts 350°
2026-05-07 19:07 50.28365 8.89439 24070 ft 381 kts 350°
2026-05-07 19:07 50.31006 8.88851 24070 ft 381 kts 350°
2026-05-07 19:07 50.33614 8.88283 24069 ft 381 kts 351°
2026-05-07 19:07 50.36225 8.87721 24067 ft 379 kts 351°
2026-05-07 19:08 50.38815 8.87168 24069 ft 380 kts 351°
2026-05-07 19:08 50.41425 8.86617 24070 ft 380 kts 351°
2026-05-07 19:08 50.44065 8.86062 24069 ft 380 kts 351°
2026-05-07 19:08 50.46670 8.85515 24067 ft 380 kts 351°
2026-05-07 19:09 50.49290 8.84965 24068 ft 381 kts 351°
2026-05-07 19:09 50.51897 8.84415 24069 ft 381 kts 351°
2026-05-07 19:09 50.54520 8.83861 24066 ft 382 kts 351°
2026-05-07 19:09 50.57151 8.83307 24066 ft 382 kts 351°
2026-05-07 19:10 50.59763 8.82706 24067 ft 381 kts 348°
2026-05-07 19:10 50.62344 8.81678 24063 ft 379 kts 339°
2026-05-07 19:10 50.64708 8.79942 24061 ft 378 kts 328°
2026-05-07 19:10 50.66858 8.77603 24061 ft 377 kts 321°
2026-05-07 19:11 50.68910 8.74999 24060 ft 377 kts 319°
2026-05-07 19:11 50.70887 8.72355 24060 ft 376 kts 318°
2026-05-07 19:11 50.72866 8.69670 24057 ft 376 kts 318°
2026-05-07 19:11 50.74852 8.66964 24058 ft 377 kts 318°
2026-05-07 19:12 50.76816 8.64289 24057 ft 376 kts 318°
2026-05-07 19:12 50.78807 8.61584 24060 ft 377 kts 318°
2026-05-07 19:12 50.80772 8.58921 24058 ft 377 kts 318°
2026-05-07 19:12 50.82770 8.56218 24060 ft 377 kts 318°
2026-05-07 19:13 50.84759 8.53530 24057 ft 378 kts 318°
2026-05-07 19:13 50.86754 8.50834 24057 ft 379 kts 318°
2026-05-07 19:13 50.88753 8.48132 24055 ft 378 kts 319°
2026-05-07 19:13 50.90759 8.45418 24059 ft 378 kts 318°
2026-05-07 19:14 50.92744 8.42728 24057 ft 378 kts 318°
2026-05-07 19:14 50.94748 8.40013 24057 ft 378 kts 318°
2026-05-07 19:14 50.96727 8.37328 24057 ft 377 kts 319°
2026-05-07 19:14 50.98220 8.35299 24048 ft 378 kts 318°
2026-05-07 19:15 50.99939 8.33005 24044 ft 379 kts 319°
2026-05-07 19:15 51.02060 8.30479 24045 ft 379 kts 324°
2026-05-07 19:15 51.04293 8.28217 24049 ft 380 kts 327°
2026-05-07 19:15 51.06564 8.26124 24048 ft 381 kts 329°
2026-05-07 19:16 51.08894 8.24062 24048 ft 381 kts 329°
2026-05-07 19:16 51.11191 8.22055 24050 ft 381 kts 329°
2026-05-07 19:16 51.13525 8.20017 24048 ft 381 kts 329°
2026-05-07 19:16 51.15844 8.17980 24049 ft 381 kts 329°
2026-05-07 19:17 51.18124 8.15966 24052 ft 381 kts 329°
2026-05-07 19:17 51.20456 8.13896 24054 ft 381 kts 329°
2026-05-07 19:17 51.22755 8.11848 24055 ft 381 kts 329°
2026-05-07 19:17 51.25064 8.09784 24055 ft 381 kts 329°
2026-05-07 19:18 51.27372 8.07716 24056 ft 381 kts 329°
2026-05-07 19:18 51.29668 8.05656 24059 ft 382 kts 329°
2026-05-07 19:18 51.31972 8.03586 24063 ft 381 kts 329°
2026-05-07 19:18 51.34298 8.01492 24066 ft 382 kts 329°
2026-05-07 19:19 51.36599 7.99420 24068 ft 381 kts 329°
2026-05-07 19:19 51.38891 7.97354 24066 ft 382 kts 329°
2026-05-07 19:19 51.41210 7.95261 24072 ft 382 kts 329°
2026-05-07 19:19 51.43518 7.93180 24075 ft 381 kts 329°
2026-05-07 19:20 51.45818 7.91135 24077 ft 382 kts 330°
2026-05-07 19:20 51.48199 7.89206 24078 ft 382 kts 334°
2026-05-07 19:20 51.50652 7.87652 24080 ft 383 kts 339°
2026-05-07 19:20 51.53193 7.86329 24081 ft 384 kts 341°
2026-05-07 19:21 51.55762 7.85109 24083 ft 384 kts 342°
2026-05-07 19:21 51.58314 7.83924 24085 ft 384 kts 342°
2026-05-07 19:21 51.60875 7.82737 24085 ft 384 kts 342°
2026-05-07 19:21 51.63449 7.81536 24085 ft 384 kts 342°
2026-05-07 19:22 51.65986 7.80342 24085 ft 384 kts 342°
2026-05-07 19:22 51.68544 7.79129 24086 ft 384 kts 342°
2026-05-07 19:22 51.71094 7.77912 24088 ft 385 kts 342°
2026-05-07 19:22 51.73664 7.76679 24088 ft 384 kts 342°
2026-05-07 19:23 51.76227 7.75445 24087 ft 384 kts 342°
2026-05-07 19:23 51.78754 7.74190 24088 ft 383 kts 340°
2026-05-07 19:23 51.81238 7.72552 24088 ft 382 kts 332°
2026-05-07 19:23 51.83477 7.70316 24083 ft 380 kts 322°
2026-05-07 19:24 51.85438 7.67560 24082 ft 378 kts 314°
2026-05-07 19:24 51.87198 7.64414 24080 ft 377 kts 308°
2026-05-07 19:24 51.88681 7.60957 24082 ft 376 kts 300°
2026-05-07 19:24 51.89934 7.57180 24083 ft 376 kts 295°
2026-05-07 19:25 51.91050 7.53382 24087 ft 376 kts 294°
2026-05-07 19:25 51.92135 7.49556 24084 ft 376 kts 294°
2026-05-07 19:25 51.93218 7.45744 24085 ft 376 kts 294°
2026-05-07 19:25 51.94320 7.41890 24084 ft 377 kts 294°
2026-05-07 19:26 51.95431 7.38031 24081 ft 378 kts 295°
2026-05-07 19:26 51.96546 7.34190 24082 ft 379 kts 294°
2026-05-07 19:26 51.97670 7.30350 24077 ft 378 kts 294°
2026-05-07 19:26 51.98796 7.26516 24078 ft 378 kts 294°
2026-05-07 19:27 51.99917 7.22681 24078 ft 378 kts 294°
2026-05-07 19:27 52.01045 7.18804 24078 ft 378 kts 294°
2026-05-07 19:27 52.02163 7.14954 24079 ft 378 kts 294°
2026-05-07 19:27 52.03275 7.11122 24078 ft 377 kts 294°
2026-05-07 19:28 52.04383 7.07306 24077 ft 376 kts 294°
2026-05-07 19:28 52.05507 7.03423 24081 ft 389 kts 294°
2026-05-07 19:28 52.06677 6.99380 23901 ft 395 kts 294°
2026-05-07 19:28 52.07822 6.95414 23517 ft 389 kts 294°
2026-05-07 19:29 52.08950 6.91480 23043 ft 384 kts 294°
2026-05-07 19:29 52.10067 6.87563 22538 ft 380 kts 294°
2026-05-07 19:29 52.11176 6.83666 22032 ft 376 kts 294°
2026-05-07 19:29 52.12261 6.79863 21526 ft 372 kts 294°
2026-05-07 19:30 52.13349 6.76083 21024 ft 369 kts 293°
2026-05-07 19:30 52.14316 6.72266 20521 ft 365 kts 290°
2026-05-07 19:30 52.15188 6.68448 20027 ft 361 kts 289°
2026-05-07 19:30 52.16032 6.64628 19515 ft 359 kts 289°
2026-05-07 19:31 52.16853 6.60832 19019 ft 356 kts 289°
2026-05-07 19:31 52.17663 6.57067 18520 ft 353 kts 289°
2026-05-07 19:31 52.18473 6.53309 18030 ft 350 kts 289°
2026-05-07 19:31 52.19278 6.49596 17535 ft 347 kts 289°
2026-05-07 19:32 52.20084 6.45900 17047 ft 344 kts 289°
2026-05-07 19:32 52.20879 6.42266 16558 ft 342 kts 289°
2026-05-07 19:32 52.21677 6.38624 16072 ft 339 kts 290°
2026-05-07 19:32 52.22456 6.35066 15587 ft 337 kts 290°
2026-05-07 19:33 52.23249 6.31436 15099 ft 335 kts 289°
2026-05-07 19:33 52.24018 6.27919 14619 ft 333 kts 289°
2026-05-07 19:33 52.24795 6.24350 14133 ft 331 kts 289°
2026-05-07 19:33 52.25557 6.20848 13657 ft 329 kts 289°
2026-05-07 19:34 52.26313 6.17366 13183 ft 327 kts 289°
2026-05-07 19:34 52.27075 6.13851 12704 ft 325 kts 289°
2026-05-07 19:34 52.27814 6.10437 12234 ft 323 kts 289°
2026-05-07 19:34 52.28565 6.06958 11763 ft 321 kts 289°
2026-05-07 19:35 52.29301 6.03546 11292 ft 320 kts 289°
2026-05-07 19:35 52.30030 6.00157 10841 ft 317 kts 289°
2026-05-07 19:35 52.30753 5.96792 10561 ft 309 kts 289°
2026-05-07 19:35 52.31454 5.93529 10438 ft 296 kts 289°
2026-05-07 19:36 52.32111 5.90462 10340 ft 284 kts 289°
2026-05-07 19:36 52.32755 5.87451 10233 ft 273 kts 289°
2026-05-07 19:36 52.33367 5.84582 10029 ft 266 kts 289°
2026-05-07 19:36 52.33980 5.81710 9640 ft 267 kts 289°
2026-05-07 19:37 52.34581 5.78887 9295 ft 266 kts 289°
2026-05-07 19:37 52.35193 5.76011 8953 ft 265 kts 290°
2026-05-07 19:37 52.35793 5.73189 8603 ft 264 kts 289°
2026-05-07 19:37 52.36397 5.70348 8260 ft 262 kts 290°
2026-05-07 19:38 52.36958 5.67716 7952 ft 261 kts 290°
2026-05-07 19:38 52.37559 5.64898 7613 ft 260 kts 290°
2026-05-07 19:38 52.38144 5.62124 7283 ft 259 kts 288°
2026-05-07 19:38 52.38509 5.59266 7047 ft 258 kts 272°
2026-05-07 19:39 52.38357 5.56295 6813 ft 268 kts 260°
2026-05-07 19:39 52.38000 5.53305 6556 ft 269 kts 258°
2026-05-07 19:39 52.37639 5.50318 6302 ft 267 kts 259°
2026-05-07 19:39 52.37311 5.47330 6049 ft 266 kts 260°
2026-05-07 19:40 52.37001 5.44334 5795 ft 265 kts 261°
2026-05-07 19:40 52.36707 5.41367 5575 ft 264 kts 261°
2026-05-07 19:40 52.36425 5.38440 5300 ft 263 kts 261°
2026-05-07 19:40 52.36130 5.35489 5087 ft 261 kts 261°
2026-05-07 19:41 52.35833 5.32563 5083 ft 261 kts 260°
2026-05-07 19:41 52.35532 5.29600 5071 ft 262 kts 260°
2026-05-07 19:41 52.35236 5.26669 5086 ft 262 kts 260°
2026-05-07 19:41 52.34940 5.23744 5079 ft 262 kts 260°
2026-05-07 19:42 52.34647 5.20824 5112 ft 262 kts 261°
2026-05-07 19:42 52.34367 5.17896 5067 ft 260 kts 261°
2026-05-07 19:42 52.34089 5.14993 5066 ft 261 kts 260°
2026-05-07 19:42 52.33785 5.12071 5078 ft 261 kts 258°
2026-05-07 19:43 52.33208 5.09236 5082 ft 261 kts 239°
2026-05-07 19:43 52.32020 5.07047 5094 ft 259 kts 217°
2026-05-07 19:43 52.30565 5.05326 5067 ft 260 kts 214°
2026-05-07 19:43 52.29095 5.03637 5076 ft 259 kts 215°
2026-05-07 19:44 52.27632 5.01890 5082 ft 259 kts 216°
2026-05-07 19:44 52.26210 5.00146 5082 ft 259 kts 216°
2026-05-07 19:44 52.24773 4.98370 5076 ft 258 kts 216°
2026-05-07 19:44 52.23336 4.96588 5077 ft 259 kts 216°
2026-05-07 19:45 52.21909 4.94811 5084 ft 259 kts 217°
2026-05-07 19:45 52.20484 4.93036 5083 ft 259 kts 217°
2026-05-07 19:45 52.19050 4.91259 5076 ft 258 kts 216°
2026-05-07 19:45 52.17621 4.89493 5079 ft 259 kts 216°
2026-05-07 19:46 52.16180 4.87716 5078 ft 259 kts 216°
2026-05-07 19:46 52.14759 4.85966 5081 ft 259 kts 216°
2026-05-07 19:46 52.13319 4.84191 5077 ft 259 kts 216°
2026-05-07 19:46 52.11884 4.82422 5070 ft 259 kts 216°
2026-05-07 19:47 52.10455 4.80661 5077 ft 259 kts 216°
2026-05-07 19:47 52.09022 4.78893 5077 ft 259 kts 216°
2026-05-07 19:47 52.07585 4.77121 5069 ft 259 kts 216°
2026-05-07 19:47 52.06147 4.75351 5068 ft 259 kts 216°
2026-05-07 19:48 52.04718 4.73595 5075 ft 259 kts 216°
2026-05-07 19:48 52.03273 4.71826 5073 ft 258 kts 216°
2026-05-07 19:48 52.01857 4.70093 5067 ft 258 kts 216°
2026-05-07 19:48 52.00415 4.68330 5072 ft 259 kts 216°
2026-05-07 19:49 51.98986 4.66583 5063 ft 258 kts 216°
2026-05-07 19:49 51.97542 4.64820 5074 ft 259 kts 216°
2026-05-07 19:49 51.96111 4.63073 5072 ft 259 kts 216°
2026-05-07 19:49 51.94665 4.61311 5070 ft 259 kts 216°
2026-05-07 19:50 51.93224 4.59556 5075 ft 259 kts 216°
2026-05-07 19:50 51.91791 4.57813 5069 ft 258 kts 216°
2026-05-07 19:50 51.90369 4.56076 5064 ft 259 kts 217°
2026-05-07 19:50 51.89035 4.54075 4821 ft 261 kts 227°
2026-05-07 19:51 51.87888 4.51829 4560 ft 259 kts 232°
2026-05-07 19:51 51.86787 4.49502 4332 ft 258 kts 232°
2026-05-07 19:51 51.85698 4.47229 4080 ft 257 kts 231°
2026-05-07 19:51 51.84584 4.44955 3818 ft 257 kts 232°
2026-05-07 19:52 51.83559 4.42581 3573 ft 257 kts 237°
2026-05-07 19:52 51.82621 4.40128 3322 ft 256 kts 238°
2026-05-07 19:52 51.81730 4.37715 3082 ft 250 kts 239°
2026-05-07 19:52 51.80931 4.35295 2821 ft 240 kts 251°
2026-05-07 19:53 51.80794 4.32684 2553 ft 229 kts 283°
2026-05-07 19:53 51.81490 4.30498 2304 ft 214 kts 317°
2026-05-07 19:53 51.82658 4.29139 2056 ft 203 kts 332°
2026-05-07 19:53 51.83844 4.28018 1865 ft 193 kts 332°
2026-05-07 19:54 51.84942 4.26957 1722 ft 180 kts 332°
2026-05-07 19:54 51.86008 4.26027 1713 ft 169 kts 348°
2026-05-07 19:54 51.87154 4.26103 1732 ft 164 kts 27°
2026-05-07 19:54 51.88108 4.26915 1747 ft 153 kts 33°
2026-05-07 19:55 51.88981 4.27862 1720 ft 148 kts 44°
2026-05-07 19:55 51.89641 4.29105 1732 ft 147 kts 56°
2026-05-07 19:55 51.90231 4.30484 1730 ft 147 kts 57°
2026-05-07 19:55 51.90792 4.31852 1652 ft 148 kts 58°
2026-05-07 19:56 51.91356 4.33252 1475 ft 146 kts 58°
2026-05-07 19:56 51.91912 4.34631 1244 ft 147 kts 57°
2026-05-07 19:56 51.92468 4.36013 1047 ft 147 kts 57°
2026-05-07 19:56 51.93027 4.37394 846 ft 144 kts 56°
2026-05-07 19:57 51.93580 4.38722 603 ft 138 kts 59°
2026-05-07 19:57 51.94102 4.40044 422 ft 140 kts 58°
2026-05-07 19:57 51.94639 4.41380 247 ft 144 kts 57°
2026-05-07 19:57 51.95177 4.42743 48 ft 145 kts 57°
2026-05-07 19:58 51.95667 4.43967 -7 ft 95 kts 57°
2026-05-07 19:58 51.95888 4.44523 -10 ft 30 kts 57°
2026-05-07 19:58 51.95871 4.44714 -10 ft 6 kts 143°
2026-05-07 19:58 51.95870 4.44714 -10 ft 0 kts 143°
2026-05-07 19:59 51.95848 4.44740 -10 ft 13 kts 146°
2026-05-07 19:59 51.95752 4.44681 -11 ft 20 kts 236°
2026-05-07 19:59 51.95676 4.44485 -10 ft 20 kts 236°
2026-05-07 19:59 51.95601 4.44298 -10 ft 19 kts 237°
2026-05-07 20:00 51.95531 4.44125 -7 ft 17 kts 237°
2026-05-07 20:00 51.95466 4.43963 -7 ft 17 kts 237°
2026-05-07 20:00 51.95402 4.43803 -7 ft 16 kts 237°
2026-05-07 20:00 51.95340 4.43645 -7 ft 16 kts 237°
2026-05-07 20:01 51.95266 4.43515 -7 ft 15 kts 183°
2026-05-07 20:01 51.95169 4.43585 -7 ft 15 kts 150°
2026-05-07 20:01 51.95090 4.43574 -7 ft 8 kts 234°
2026-05-07 20:01 51.95063 4.43544 -5 ft 6 kts 168°
2026-05-07 20:02 51.95024 4.43577 -5 ft 6 kts 147°
2026-05-07 20:02 51.95021 4.43581 -5 ft 0 kts 147°